Location: Observatory
(52.1446°N, 0.4624°W)
Time: 09:07:51
(UTC+00:00)

ISS - Visible Passes

Search period start: 18 December 2017 00:00
Search period end: 28 December 2017 00:00
Orbit: 402 x 406 km, 51.6° (Epoch: 18 December)

Date Brightness Start Highest point End Pass type
(mag) Time Alt. Az. Time Alt. Az. Time Alt. Az.
19 Dec 0.1 16:39:25 10° SW 16:40:05 10° SW 16:40:46 10° SSW visible
26 Dec -0.7 07:19:56 10° S 07:22:15 18° SE 07:24:35 10° E visible
27 Dec -0.5 06:28:53 10° SSE 06:30:08 12° SE 06:31:24 10° ESE visible
